Location: Saluda
(35.2377°N, 82.3468°W)
Time: 16:07:20
(UTC+00:00)

Transit 2A - Pass Details

Date: 11 October 2022
Orbit: 598 x 959 km, 66.7° (Epoch: 06 December)

Event Time Altitude Azimuth Distance (km) Brightness Sun altitude
Rises 00:58:37 0° 168° (SSE) 2,955 - -24.8°
Reaches altitude 10° 01:01:37 10° 149° (SSE) 1,999 - -25.4°
Maximum altitude 01:04:30 17° 108° (ESE) 1,555 - -26.0°
Drops below altitude 10° 01:07:20 10° 67° (ENE) 1,947 - -26.6°
Sets 01:10:11 0° 47° (NE) 2,843 - -27.2°
